Location: Bothwell
(42.3833°S, 147.0000°E)
Time: 23:47:23
(UTC+10:00)

YUBILEINY - Visible Passes

Search period start: 01 October 2022 00:00
Search period end: 11 October 2022 01:00
Orbit: 1477 x 1509 km, 82.5° (Epoch: 01 October)

Date Brightness Start Highest point End Pass type
(mag) Time Alt. Az. Time Alt. Az. Time Alt. Az.
01 Oct ? 05:05:13 10° SSE 05:11:57 23° ESE 05:18:33 10° ENE visible
01 Oct ? 20:01:45 10° NNW 20:10:35 72° W 20:19:33 10° S visible
01 Oct ? 22:04:22 10° W 22:09:12 15° WSW 22:14:06 10° SSW visible
02 Oct ? 05:17:51 10° SSE 05:21:07 12° SE 05:24:22 10° ESE visible
02 Oct ? 20:12:18 10° N 20:21:03 68° E 20:29:52 10° SSE visible
02 Oct ? 22:11:14 10° WNW 22:18:34 28° WSW 22:25:59 10° S visible
03 Oct ? 21:19:53 10° NNW 21:28:23 49° WSW 21:36:59 10° S visible
04 Oct ? 05:33:38 10° SSE 05:39:38 19° ESE 05:45:33 10° ENE visible
04 Oct ? 20:29:42 10° N 20:38:35 84° W 20:47:34 10° S visible
04 Oct ? 22:31:04 10° WNW 22:36:51 19° WSW 22:42:43 10° SSW visible
05 Oct ? 19:40:33 10° NNE 19:49:08 58° E 19:57:47 10° SSE visible
05 Oct ? 21:38:35 10° NW 21:46:22 33° WSW 21:54:13 10° S visible
06 Oct ? 05:50:26 10° S 05:57:54 29° ESE 06:05:14 10° NE visible
06 Oct ? 20:47:36 10° NNW 20:56:18 58° WSW 21:05:05 10° S visible
06 Oct ? 22:52:34 10° WSW 22:55:24 12° SW 22:58:15 10° SW visible
07 Oct ? 05:02:12 10° SSE 05:07:17 16° ESE 05:12:18 10° E visible
07 Oct ? 19:57:44 10° N 20:06:36 84° E 20:15:33 10° S visible
07 Oct ? 21:58:01 10° WNW 22:04:33 22° WSW 22:11:09 10° SSW visible
08 Oct ? 06:07:35 10° S 06:15:56 43° ESE 06:24:07 10° NE visible
08 Oct ? 21:06:04 10° NW 21:14:12 39° WSW 21:22:25 10° S visible
09 Oct ? 05:18:43 10° SSE 05:25:39 25° ESE 05:32:28 10° ENE visible
09 Oct ? 20:15:26 10° NNW 20:24:14 68° W 20:33:09 10° S visible
09 Oct ? 22:18:35 10° W 22:22:59 14° SW 22:27:24 10° SSW visible
10 Oct ? 04:31:03 10° SSE 04:34:53 13° SE 04:38:42 10° E visible
10 Oct ? 21:25:10 10° WNW 21:32:17 26° WSW 21:39:29 10° S visible
